Weather History for Grayling, MI

Change the Weather History Date:

Wednesday, April 17, 2013

  Actual Average (KHTL) Record (KHTL)
Temperature  
Mean Temperature 34 °F 43 °F  
Max Temperature 48 °F 55 °F 85 °F (1927)
Min Temperature 21 °F 32 °F 12 °F (1949)
Degree Days  
Heating Degree Days 30 22  
Month to date heating degree days 431  
Since 1 July heating degree days 7416  
Cooling Degree Days 0 0  
Month to date cooling degree days 0  
Year to date cooling degree days 0  
Moisture  
Dew Point 30 °F    
Average Humidity 82    
Maximum Humidity 100    
Minimum Humidity 46    
Precipitation  
Precipitation 0.00 in 0.09 in 1.09 in (1960)
Month to date precipitation 1.46  
Year to date precipitation 6.02  
Snow  
Snow 0.00 in 0.10 in 5.70 in (1965)
Month to date snowfall 3.0  
Since 1 July snowfall 65.8  
Snow Depth -    
Sea Level Pressure  
Sea Level Pressure 30.28 in    
Wind  
Wind Speed 5 mph (East)    
Max Wind Speed 18 mph    
Max Gust Speed 29 mph    
Visibility 9 miles    
Events Rain , Snow    
T = Trace of Precipitation, MM = Missing Value Source: NWS Daily Summary

Daily Weather History Graph

Daily Weather History Graph

Search for Another Location

Airport:

Trip Planner

Search our weather history database for the weather conditions in past years. The results will help you decide how hot, cold, wet, or windy it might be!

Date:

Astronomy

Apr. 17, 2013 Rise Set
Actual Time 6:50 AM EDT 8:26 PM EDT
Civil Twilight 6:20 AM EDT 8:57 PM EDT
Nautical Twilight 5:43 AM EDT 9:34 PM EDT
Astronomical Twilight 5:03 AM EDT 10:15 PM EDT
Moon 11:59 AM EDT (4/17) 2:09 AM EDT (4/17)
Length of Visible Light 14h 37m
Length of Day
13h 35m
Waxing Crescent, 42% of the Moon is Illuminated
Apr 17
Waxing Crescent
Apr 18
First Quarter
Apr 25
Full
May 2
Last Quarter
May 9
New

Hourly Weather History & Observations

Time (EDT) Temp. Windchill Dew Point Humidity Pressure Visibility Wind Dir Wind Speed Gust Speed Precip Events Conditions
12:15 AM 28.4 °F 24.6 °F 25.7 °F 90% 30.29 in 10.0 mi NW 3.5 mph - N/A   Clear
12:34 AM 28.4 °F - 26.1 °F 91% 30.30 in 10.0 mi Calm Calm - N/A   Clear
12:55 AM 28.6 °F - 25.7 °F 89% 30.31 in 10.0 mi Calm Calm - N/A   Clear
1:15 AM 28.2 °F - 26.8 °F 94% 30.31 in 10.0 mi Calm Calm - N/A   Clear
1:34 AM 30.0 °F - 28.4 °F 94% 30.32 in 10.0 mi Calm Calm - N/A   Clear
1:55 AM 28.4 °F 24.6 °F 26.6 °F 93% 30.33 in 10.0 mi North 3.5 mph - N/A   Clear
2:15 AM 28.4 °F - 27.1 °F 95% 30.33 in 10.0 mi Calm Calm - N/A   Clear
2:34 AM 28.4 °F - 27.1 °F 95% 30.33 in 10.0 mi Calm Calm - N/A   Clear
2:55 AM 28.4 °F 24.6 °F 28.0 °F 99% 30.34 in 10.0 mi WNW 3.5 mph - N/A   Clear
3:15 AM 28.4 °F - 28.0 °F 99% 30.33 in 10.0 mi Calm Calm - N/A   Clear
3:34 AM 26.1 °F - 25.3 °F 97% 30.34 in 10.0 mi Calm Calm - N/A   Clear
3:55 AM 26.1 °F - 25.7 °F 99% 30.35 in 10.0 mi Calm Calm - N/A   Clear
4:15 AM 26.4 °F - 26.2 °F 99% 30.35 in 10.0 mi Calm Calm - N/A   Clear
4:35 AM 25.0 °F - 24.6 °F 99% 30.36 in 10.0 mi Calm Calm - N/A   Clear
4:55 AM 25.9 °F - 25.5 °F 99% 30.36 in 10.0 mi Calm Calm - N/A   Clear
5:15 AM 25.3 °F - 24.8 °F 98% 30.36 in 10.0 mi Calm Calm - N/A   Clear
5:35 AM 22.1 °F - 21.4 °F 97% 30.36 in 7.0 mi Calm Calm - N/A   Clear
5:55 AM 23.5 °F - 23.5 °F 100% 30.36 in 4.0 mi Calm Calm - N/A   Clear
6:15 AM 21.4 °F - 21.0 °F 99% 30.36 in 10.0 mi Calm Calm - N/A   Clear
6:35 AM 22.5 °F - 22.5 °F 100% 30.36 in 10.0 mi Calm Calm - N/A   Clear
6:55 AM 21.2 °F - 21.0 °F 99% 30.37 in 10.0 mi Calm Calm - N/A   Clear
7:15 AM 22.8 °F - 22.6 °F 99% 30.38 in 10.0 mi Calm Calm - N/A   Clear
7:35 AM 23.7 °F - 23.7 °F 100% 30.37 in 10.0 mi Calm Calm - N/A   Clear
7:55 AM 28.4 °F - 28.4 °F 100% 30.36 in 10.0 mi Calm Calm - N/A   Clear
8:15 AM 28.4 °F - 28.4 °F 100% 30.36 in 10.0 mi Calm Calm - N/A   Clear
8:35 AM 32.2 °F 27.7 °F 31.3 °F 96% 30.36 in 10.0 mi ENE 4.6 mph - N/A   Clear
8:55 AM 33.3 °F 27.1 °F 30.9 °F 91% 30.36 in 10.0 mi ENE 6.9 mph - N/A   Clear
9:14 AM 35.8 °F 30.9 °F 31.8 °F 86% 30.36 in 10.0 mi East 5.8 mph - N/A   Clear
9:35 AM 38.3 °F 31.4 °F 31.8 °F 77% 30.37 in 10.0 mi East 10.4 mph - N/A   Clear
10:14 AM 39.7 °F 33.7 °F 30.2 °F 69% 30.36 in 10.0 mi ESE 9.2 mph - N/A   Clear
10:35 AM 41.5 °F 35.0 °F 30.7 °F 65% 30.35 in 10.0 mi East 11.5 mph 17.3 mph N/A   Clear
10:55 AM 42.3 °F 36.3 °F 30.9 °F 64% 30.36 in 10.0 mi East 10.4 mph - N/A   Clear
11:14 AM 43.3 °F 39.2 °F 30.9 °F 62% 30.36 in 10.0 mi East 6.9 mph - N/A   Clear
11:35 AM 45.9 °F 42.9 °F 32.0 °F 58% 30.37 in 10.0 mi East 5.8 mph - N/A   Clear
11:55 AM 46.0 °F 41.4 °F 31.6 °F 57% 30.36 in 10.0 mi East 9.2 mph - N/A   Scattered Clouds
12:14 PM 48.4 °F - 32.0 °F 53% 30.34 in 10.0 mi ESE 11.5 mph 16.1 mph N/A   Scattered Clouds
12:35 PM 48.4 °F - 31.6 °F 52% 30.31 in 10.0 mi East 16.1 mph 20.7 mph N/A   Clear
12:55 PM 48.4 °F - 31.1 °F 51% 30.33 in 10.0 mi SE 11.5 mph 19.6 mph N/A   Clear
1:15 PM 48.4 °F - 30.6 °F 50% 30.33 in 10.0 mi East 12.7 mph 17.3 mph N/A   Clear
1:35 PM 48.4 °F - 30.2 °F 49% 30.31 in 10.0 mi East 11.5 mph 21.9 mph N/A   Clear
1:54 PM 48.4 °F - 30.0 °F 49% 30.30 in 10.0 mi East 15.0 mph 28.8 mph N/A   Clear
2:15 PM 48.4 °F - 29.3 °F 48% 30.30 in 10.0 mi East 13.8 mph 20.7 mph N/A   Clear
2:35 PM 48.4 °F - 28.6 °F 46% 30.28 in 10.0 mi East 12.7 mph 20.7 mph N/A   Scattered Clouds
2:54 PM 48.4 °F - 28.2 °F 46% 30.27 in 10.0 mi East 18.4 mph - N/A   Overcast
3:15 PM 48.4 °F - 28.9 °F 47% 30.24 in 10.0 mi ENE 17.3 mph 21.9 mph N/A   Overcast
3:35 PM 48.4 °F - 30.4 °F 50% 30.24 in 10.0 mi East 13.8 mph 20.7 mph N/A   Overcast
3:54 PM 48.2 °F - 30.6 °F 51% 30.25 in 10.0 mi East 15.0 mph 19.6 mph N/A   Overcast
4:35 PM 45.9 °F 40.8 °F 28.9 °F 52% 30.26 in 10.0 mi East 10.4 mph 19.6 mph N/A   Overcast
4:54 PM 45.9 °F 40.4 °F 29.5 °F 53% 30.26 in 10.0 mi East 11.5 mph - N/A   Overcast
5:15 PM 44.8 °F 38.3 °F 29.8 °F 56% 30.24 in 10.0 mi East 13.8 mph - N/A   Light Drizzle
5:35 PM 41.5 °F 35.9 °F 31.3 °F 67% 30.23 in 10.0 mi East 9.2 mph - N/A Rain Light Rain
5:54 PM 41.0 °F 34.7 °F 32.4 °F 71% 30.23 in 10.0 mi East 10.4 mph - N/A Rain Light Rain
6:15 PM 39.6 °F 32.5 °F 33.1 °F 78% 30.21 in 10.0 mi East 11.5 mph - N/A Rain Light Rain
6:35 PM 38.3 °F 31.4 °F 33.4 °F 83% 30.21 in 7.0 mi East 10.4 mph - N/A Rain Rain
6:55 PM 38.3 °F 30.9 °F 34.9 °F 87% 30.21 in 5.0 mi East 11.5 mph - N/A Rain Rain
7:15 PM 38.3 °F 30.9 °F 35.8 °F 91% 30.19 in 3.0 mi ESE 11.5 mph - N/A Rain Rain
7:34 PM 36.5 °F 29.2 °F 34.7 °F 93% 30.18 in 4.0 mi ESE 10.4 mph - N/A Rain Rain
7:55 PM 35.8 °F 27.3 °F 34.2 °F 94% 30.17 in 4.0 mi East 12.7 mph 19.6 mph N/A Rain Light Rain
8:15 PM 35.8 °F 26.9 °F 34.2 °F 94% 30.16 in 4.0 mi East 13.8 mph - N/A Rain Rain
8:35 PM 35.8 °F 27.8 °F 34.9 °F 97% 30.14 in 5.0 mi East 11.5 mph 17.3 mph N/A Rain Rain
8:55 PM 35.8 °F 26.5 °F 35.1 °F 97% 30.14 in 7.0 mi East 15.0 mph - N/A Rain Light Rain
9:15 PM 34.9 °F 26.6 °F 34.2 °F 97% 30.13 in 10.0 mi East 11.5 mph - N/A Rain Light Rain
9:35 PM 34.3 °F 27.0 °F 33.8 °F 98% 30.12 in 10.0 mi ESE 9.2 mph - N/A   Light Drizzle
9:55 PM 34.7 °F 28.1 °F 34.7 °F 100% 30.12 in 10.0 mi East 8.1 mph - N/A   Light Drizzle
10:15 PM 35.2 °F 28.8 °F 35.2 °F 100% 30.12 in 10.0 mi ENE 8.1 mph - N/A   Light Drizzle
10:35 PM 35.6 °F 28.6 °F 35.6 °F 100% 30.11 in 10.0 mi East 9.2 mph - N/A   Overcast
10:55 PM 35.8 °F 28.8 °F 35.8 °F 100% 30.10 in 3.0 mi ENE 9.2 mph - N/A Rain Light Rain
11:15 PM 35.8 °F 28.3 °F 35.8 °F 100% 30.10 in 2.5 mi East 10.4 mph - N/A Snow Light Snow
11:35 PM 35.6 °F 29.2 °F 35.6 °F 100% 30.10 in 2.5 mi East 8.1 mph - N/A Rain Light Rain
11:55 PM 34.7 °F 26.9 °F 34.7 °F 100% 30.08 in 2.5 mi East 10.4 mph - N/A Snow Light Snow